Hourly Weather Roundup
Issued by NWS Central Illinois

Home | Current Version | Previous Version | Text Only | Print | Product List | Glossary On
Versions: 1 2 3 4 5 6 7 8 9 10 11 12 13 14 15 16 17 18 19 20 21 22 23 24 25 26 27 28 29 30 31 32 33 34 35 36 37 38 39 40 41 42 43 44 45 46 47 48 49 50
000
NZUS43 KILX 290410
HWRILX

AREA WEATHER ROUNDUP
NATIONAL WEATHER SERVICE, LINCOLN IL
1100 PM CDT MON JUL 28 2014


CITY           SKY/WX    TMP DP  RH WIND       PRES   REMARKS
BLOOMINGTON    CLEAR     58  50  75 W5        30.11F
CHAMPAIGN      CLEAR     56  52  86 NW5       30.09F
DECATUR        CLEAR     59  52  77 N7        30.10F
FLORA          CLEAR     60  53  76 N3        30.11R
GALESBURG      CLEAR     55  53  94 CALM      30.12F
JACKSONVILLE   CLEAR     57  55  92 W3        30.14S
LACON          CLEAR     56  53  89 CALM      30.09F
LAWRENCEVILLE  CLEAR     59  51  75 N5        30.09S
LITCHFIELD     CLEAR     57  53  86 N6        30.13R
$$


CITY           SKY/WX    TMP DP  RH WIND       PRES   REMARKS
LINCOLN        CLEAR     61  54  77 CALM      30.09S
MACOMB         CLEAR     55  54  97 CALM      30.15S
MATTOON          N/A     56  50  80 CALM      30.09S
MT CARMEL AP   CLEAR     61  54  77 N3        30.09S
OLNEY-NOBLE AP CLEAR     55  54  94 CALM      30.10S
PARIS          CLEAR     53  51  95 CALM      30.09S
PEORIA         CLEAR     61  54  77 CALM      30.11F
PONTIAC        CLEAR     57  55  94 CALM      30.09F
RANTOUL        CLEAR     60  52  76 NW7       30.10S
ROBINSON       CLEAR     56  53  88 CALM      30.09F
SPRINGFIELD    CLEAR     58  55  90 NW3       30.13R
TAYLORVILLE    CLEAR     55  54  94 CALM      30.11S
$$

...REGIONAL REPORTS...


CITY           SKY/WX    TMP DP  RH WIND       PRES   REMARKS
CHICAGO O`HARE CLOUDY    62  49  62 CALM      30.05F
KANKAKEE       CLEAR     54  52  93 CALM      30.09S
MOLINE         CLEAR     57  53  86 CALM      30.11F
MOUNT VERNON   CLEAR     57  52  82 CALM      30.11S
PITTSFIELD     CLEAR     59  55  87 CALM      30.15F
QUINCY         PTCLDY    61  57  87 CALM      30.14F
ROCKFORD       PTCLDY    61  53  75 W7        30.10F
$$


CITY           SKY/WX    TMP DP  RH WIND       PRES   REMARKS
BURLINGTON     CLEAR     61  57  87 NW5       30.13S
CEDAR RAPIDS   CLEAR     60  55  83 NW7       30.13S
DES MOINES     CLEAR     65  59  81 NW3       30.16S
KIRKSVILLE     MOCLDY    60  57  89 CALM      30.16F
OTTUMWA        CLEAR     59  57  93 NW5       30.15R
ST LOUIS       CLEAR     66  54  65 NW5       30.13
$$


CITY           SKY/WX    TMP DP  RH WIND       PRES   REMARKS
TERRE HAUTE    CLEAR     54  50  86 NW3       30.07F
EVANSVILLE     CLEAR     65  54  67 N7        30.09R
INDIANAPOLIS   CLEAR     59  47  64 N12G21    30.03F
LAFAYETTE      CLEAR     53  49  86 NW5       30.07F
MADISON        PTCLDY    64  52  64 W8        30.08S
MILWAUKEE      MOCLDY    59  49  69 S5        30.06F
$$




USA.gov is the U.S. government's official web portal to all federal, state and local government web resources and services.